This is the latest recevied weather packets stored in our database for station/object WX4ET. If no packets are shown the sender has not sent any weather packets the latest 10 day(s).
| Time | Temp. | Humidity | Pressure | Rain* | Wind** | Luminosity | Snow |
|---|---|---|---|---|---|---|---|
| 1776996210 | 16.67° C | 73% | 1009.6 hPa | 0 mm | - | 0 W/m² | - |
| 1776995908 | 16.67° C | 71% | 1009.5 hPa | 0 mm | - | 0 W/m² | - |
| 1776995603 | 16.67° C | 70% | 1009.5 hPa | 0 mm | - | 0 W/m² | - |
| 1776995303 | 16.67° C | 70% | 1009.6 hPa | 0 mm | - | 0 W/m² | - |
| 1776994999 | 17.22° C | 70% | 1009.6 hPa | 0 mm | - | 0 W/m² | - |
| 1776994695 | 17.22° C | 69% | 1009.6 hPa | 0 mm | - | 0 W/m² | - |
| 1776994391 | 17.78° C | 69% | 1009.6 hPa | 0 mm | - | 0 W/m² | - |
| 1776994088 | 17.78° C | 67% | 1009.5 hPa | 0 mm | - | 0 W/m² | - |
| 1776993785 | 17.78° C | 66% | 1009.5 hPa | 0 mm | - | 0 W/m² | - |
| 1776993483 | 18.33° C | 66% | 1009.4 hPa | 0 mm | - | 0 W/m² | - |
| 1776993179 | 18.89° C | 64% | 1009.5 hPa | 0 mm | - | 0 W/m² | - |
| 1776992876 | 18.89° C | 64% | 1009.6 hPa | 0 mm | - | 0 W/m² | - |
| 1776992572 | 19.44° C | 65% | 1009.4 hPa | 0 mm | - | 0 W/m² | - |
| 1776992270 | 20° C | 61% | 1009.4 hPa | 0 mm | - | 0 W/m² | - |
| 1776991966 | 20° C | 59% | 1009.4 hPa | 0 mm | - | 0 W/m² | - |
| 1776991663 | 20° C | 60% | 1009.2 hPa | 0 mm | - | 0 W/m² | - |
| 1776991359 | 20.56° C | 58% | 1009.1 hPa | 0 mm | - | 0 W/m² | - |
| 1776991055 | 21.11° C | 55% | 1009.2 hPa | 0 mm | - | 0 W/m² | - |
| 1776990752 | 21.11° C | 54% | 1009.2 hPa | 0 mm | - | 0 W/m² | - |
| 1776990450 | 21.67° C | 52% | 1009.5 hPa | 0 mm | - | 0 W/m² | - |
| 1776990145 | 22.78° C | 52% | 1009.5 hPa | 0 mm | - | 0 W/m² | - |
| 1776989841 | 22.78° C | 50% | 1009.2 hPa | 0 mm | - | 0 W/m² | - |
| 1776989536 | 23.33° C | 48% | 1009 hPa | 0 mm | - | 1 W/m² | - |
| 1776989233 | 23.33° C | 48% | 1009 hPa | 0 mm | - | 3 W/m² | - |
| 1776988929 | 23.89° C | 46% | 1009.1 hPa | 0 mm | - | 6 W/m² | - |
* Rain latest hour (hover to see other rain measurements)
** Current wind speed in m/s (hover to see current wind gust speed)